Location: ??????
(38.0677°N, 22.9870°E)
Time: 09:58:24
(UTC+00:00)

COSMOS 2428 - Pass Details

Date: 23 May 2024
Orbit: 844 x 856 km, 70.9° (Epoch: 23 June)

Event Time Altitude Azimuth Distance (km) Brightness Sun altitude
Rises 02:01:11 0° 342° (NNW) 3,410 6.1 -12.4°
Reaches altitude 10° 02:03:43 10° 347° (NNW) 2,473 5.5 -12.0°
Maximum altitude 02:09:15 52° 64° (ENE) 1,048 3.7 -11.2°
Drops below altitude 10° 02:14:45 10° 140° (SE) 2,466 5.2 -10.3°
Sets 02:17:16 0° 145° (SE) 3,400 5.8 -9.9°
